JCSAT-16

Last updated on Thu Oct 30 2025 00:02:50 GMT+0000 (Coordinated Universal Time)

1 41729U 16050A 25302.42826413 -.00000241 00000+0 00000+0 0 9993 2 41729 0.0194 242.9284 0001123 215.0475 238.1918 1.00270891 33759
UTC large
Height (km)
Speed (km/s)
/
Latitude / Longitude
Inclination (degrees)
Orbital Period (minutes)
Azimuth
Elevation
Range (km)
Doppler Factor

Next 0 passes for location: London (51.5072 / 0.1276)

Sorry there are no passes over London.